Location: Harwich
(41.6860°N, 70.0760°W)
Time: 14:34:48
(UTC-04:00)

Daily predictions for brighter satellites

Satellite Brightness Start Highest point End
(mag) Time Altitude Azimuth Time Altitude Azimuth Time Altitude Azimuth
YAOGAN 11 4.2 20:34:32 10° SSE 20:39:01 77° ENE 20:43:36 10° N
ATLAS 5 CENTAUR R/B 2.6 20:34:37 10° NNW 20:40:34 63° NE 20:46:55 10° SE
Cosmos 2181 Rocket 4.4 20:34:44 10° NNW 20:41:10 71° W 20:47:29 10° S
Cosmos 1733 Rocket 3.4 20:38:39 10° SSE 20:42:54 47° E 20:47:07 10° NNE
Cosmos 2056 Rocket 3.7 20:38:25 10° S 20:43:23 48° ESE 20:48:18 10° NNE
Cosmos 1371 Rocket 4.0 20:40:08 10° S 20:45:25 70° ESE 20:50:42 10° NNE
CENTAUR R/B 3.2 20:40:22 10° NW 20:48:15 89° NE 20:56:36 10° SSE
Cosmos 2278 Rocket 3.5 20:47:13 10° SE 20:51:03 19° E 20:54:54 10° ENE
Cosmos 1844 4.5 20:48:50 10° SSE 20:53:48 31° ESE 20:58:49 10° NE
USA 186 3.9 20:53:31 10° SSW 20:56:07 26° W 20:58:53 10° NW
Cosmos 1356 Rocket 3.4 20:52:16 10° S 20:56:29 86° E 21:00:47 10° N
NOSS 2-2 (D) 3.5 20:55:51 10° SSW 20:59:54 70° ESE 21:04:37 10° NE
Cosmos 1844 Rocket 2.9 20:56:27 10° S 21:01:52 49° ESE 21:07:16 10° NE
Cosmos 2074 Rocket 4.1 20:57:10 10° S 21:03:27 89° E 21:09:46 10° N
Meteor 2-3 Rocket 4.5 20:59:37 10° SSW 21:05:08 57° WNW 21:10:40 10° N
Cosmos 1825 3.5 21:03:03 14° SE 21:05:25 23° E 21:08:30 10° NE
SL-27 R/B 2.7 21:02:25 10° N 21:06:03 59° ENE 21:08:58 15° SSE
H-2A R/B 2.0 21:04:24 10° SSE 21:08:44 80° ENE 21:13:01 10° N
COSMOS 2487 4.4 21:06:20 10° NNE 21:08:51 17° ENE 21:10:43 13° E
Cosmos 2082 Rocket 4.3 21:06:00 10° NNE 21:09:11 15° NE 21:12:21 10° E
COS B Rocket 3.8 21:06:41 10° NNE 21:10:44 43° E 21:13:46 14° SSE
Cosmos 1610 Rocket 4.5 21:06:01 10° S 21:12:07 73° E 21:18:19 10° NNE
Meteor 1-27 Rocket 3.9 21:08:20 10° N 21:13:49 54° ENE 21:18:26 14° SSE
NOSS 2-2 (C) 3.6 21:10:30 10° SW 21:14:35 83° NW 21:19:23 10° NE
Cosmos 2263 Rocket 4.4 21:12:24 10° WSW 21:17:21 30° NW 21:22:17 10° N
Nadezhda 3 Rocket 4.2 21:11:47 10° N 21:18:02 57° E 21:23:31 14° SSE
MetOp-A 4.3 21:14:04 13° SSE 21:18:44 61° ENE 21:24:01 10° N
CZ-4 SHROUD 3.6 21:17:38 21° SE 21:19:25 46° ENE 21:22:24 10° N
YAOGAN 6 3.1 21:17:30 19° SE 21:19:38 42° ENE 21:22:58 10° N
Cosmos 1408 3.3 21:18:10 18° SE 21:20:17 33° E 21:23:37 10° NNE
Envisat 3.1 21:17:19 10° S 21:22:23 77° WSW 21:27:29 10° NNW
Cosmos 1624 Rocket 4.4 21:17:28 10° SSW 21:22:42 69° WNW 21:28:01 10° NNE
Cosmos 1782 3.0 21:20:31 10° N 21:24:33 76° W 21:28:20 11° S
Cosmos 1939 Rocket 3.5 21:21:07 10° S 21:24:52 52° W 21:28:43 10° NNW
BREEZE-M DEB (TANK) 3.5 21:23:24 10° W 21:25:17 26° SSW 21:26:55 17° SSE
Atlas Centaur 2 2.9 21:24:23 10° SSW 21:26:26 15° S 21:26:36 15° S
Okean 2 Rocket 3.9 21:25:30 20° SE 21:27:42 31° E 21:31:36 10° NNE
H-2A R/B 3.5 21:25:02 15° ESE 21:28:04 24° ENE 21:32:17 10° NNE
Cosmos 1238 Rocket 2.8 21:27:00 10° N 21:30:01 42° E 21:31:26 26° SE
Sich 1 Rocket 3.7 21:28:04 10° S 21:32:39 85° W 21:37:16 10° N
SPOT 5 3.1 21:28:50 13° SSE 21:33:31 84° WSW 21:38:55 10° NNW
Cosmos 1242 Rocket 3.8 21:32:18 10° NNE 21:35:27 27° ENE 21:36:29 23° ESE
Cosmos 2341 Rocket 4.1 21:29:40 10° S 21:35:54 63° E 21:42:05 10° NNE
PSLV R/B 3.0 21:34:51 27° S 21:36:19 86° WSW 21:39:17 10° NNW
ERBS 3.3 21:33:28 10° WNW 21:36:44 39° SW 21:38:24 23° S
Cosmos 1674 Rocket 4.2 21:33:12 10° NNW 21:37:35 55° W 21:41:51 10° S
Cosmos 1606 2.7 21:34:51 10° N 21:38:48 87° W 21:41:22 21° S
Cosmos 407 Rocket 3.6 21:35:57 10° NNW 21:41:13 77° WSW 21:45:02 19° S
SPOT 1/Viking Rocket 3.6 21:39:31 22° SSE 21:42:55 68° ENE 21:48:06 10° N
Terra 3.2 21:42:24 19° E 21:44:20 25° ENE 21:48:12 10° NNE
Cosmos 1452 Rocket 3.4 21:41:17 10° SSW 21:46:32 77° ESE 21:51:49 10° NNE
Timation 2 Rocket 4.5 21:41:01 10° NNW 21:46:44 43° ENE 21:50:03 23° ESE
Cosmos 1782 Rocket 3.5 21:47:18 22° S 21:50:08 68° E 21:54:36 10° NNE
Cosmos 1140 Rocket 3.7 21:50:34 10° N 21:55:38 55° ENE 21:57:55 30° SE
Meteor 2-13 Rocket 4.4 21:51:47 19° S 21:56:20 66° E 22:02:26 10° NNE
PSLV R/B 4.3 21:55:29 10° W 21:58:36 31° SSW 21:58:46 31° SSW
Cosmos 962 Rocket 4.5 21:54:35 10° S 22:00:39 86° W 22:06:54 10° N
SL-8 Rocket 4.1 21:57:01 24° SSE 22:00:51 58° E 22:06:58 10° NNE
Okean 3 3.6 22:00:01 10° NNW 22:04:18 75° W 22:06:18 30° S
USA 234 3.3 21:58:31 10° NE 22:04:54 54° SE 22:11:14 10° SSW
Cosmos 1975 Rocket 2.9 22:01:37 10° N 22:05:58 86° WSW 22:07:44 35° S
Cosmos 2154 Rocket 4.5 22:01:06 10° SSW 22:07:13 60° W 22:13:22 10° N
Intercosmos 25 3.0 22:07:21 41° S 22:08:31 80° E 22:11:45 10° N
CARTOSAT-1 4.2 22:07:37 35° ESE 22:08:39 41° ENE 22:12:43 10° N
CZ-4B R/B 3.5 22:05:12 10° NNE 22:10:13 79° WNW 22:13:59 17° SSW
DMSP B5D2-2 4.5 22:09:36 10° NNE 22:14:35 43° E 22:15:45 37° SE
Meteor 1-14 Rocket 4.2 22:12:57 32° SSE 22:15:35 63° E 22:21:09 10° NNE
Cosmos 1536 Rocket 4.2 22:14:25 10° N 22:18:40 40° ENE 22:19:18 38° E
Cosmos 1850 Rocket 4.1 22:14:39 10° NNW 22:19:58 68° ENE 22:21:46 41° SE
USA 245 4.0 22:19:17 31° SW 22:20:01 36° W 22:23:22 10° NNW
SL-08 RB Rocket 3.8 22:18:58 36° S 22:20:45 71° WSW 22:25:23 10° NNW
ARGOS 3.4 22:19:51 28° S 22:22:41 62° WSW 22:28:00 10° NNW
ATLAS 5 CENTAUR R/B 4.0 22:20:06 10° WNW 22:24:59 25° WSW 22:28:52 15° SSW
Cosmos 1184 Rocket 4.2 22:24:38 24° SW 22:26:01 36° WNW 22:29:09 10° N
CZ-4 R/B 4.0 22:23:01 10° N 22:27:42 70° WNW 22:30:17 26° SSW
CZ-3C R/B 4.3 22:24:06 10° SW 22:29:39 13° SSW 22:30:50 13° SSW
Cosmos 2151 Rocket 3.5 22:32:07 58° SSE 22:32:52 72° E 22:37:24 10° NNE
Cosmos 864 Rocket 4.4 22:30:33 38° SSE 22:33:00 70° E 22:39:08 10° NNE
Cosmos 2278 Rocket 2.7 22:28:58 10° SW 22:34:34 61° WNW 22:40:13 10° NNE
Cosmos 1741 Rocket 3.9 22:33:12 10° NNW 22:38:28 86° WSW 22:39:49 51° SSE
Cosmos 1833 Rocket 3.1 22:33:56 10° NNW 22:39:25 51° ENE 22:40:56 40° ESE
Cosmos 2366 rocket 3.9 22:36:39 35° S 22:39:29 83° E 22:45:51 10° N
Cosmos 1825 4.5 22:37:59 10° SW 22:40:59 22° WNW 22:44:00 10° NNW
Spot 2 4.4 22:37:24 10° NNE 22:41:20 48° E 22:41:20 48° E
Cosmos 2084 4.2 22:38:39 10° SW 22:42:21 45° NW 22:46:04 10° NNE
COSMOS 2487 4.0 22:41:21 10° NW 22:44:31 29° WSW 22:44:48 28° WSW
USA 229 DEB 3.9 22:42:22 10° NNW 22:49:27 66° NE 22:52:17 38° ESE
USA 229 3.9 22:42:28 10° NNW 22:49:33 66° NE 22:52:23 38° ESE
APEX 3.7 22:50:10 52° WSW 22:51:00 68° WNW 22:55:54 10° NNE
CZ-4C R/B 4.0 22:51:49 42° WSW 22:52:06 43° W 22:55:55 10° NNW
Cosmos 1812 3.2 22:49:23 10° N 22:52:41 53° NE 22:52:41 53° NE
Cosmos 2082 Rocket 2.1 22:48:27 10° NNW 22:54:11 84° ENE 22:55:25 57° SSE
Cosmos 1331 Rocket 4.5 22:55:55 43° E 22:55:55 43° E 23:00:23 10° NNE
Cosmos 1110 Rocket 4.1 22:59:10 55° ESE 22:59:10 55° ESE 23:04:14 10° NNE
Okean 1-7 Rocket 4.1 22:57:53 10° N 23:02:00 47° ENE 23:02:00 47° ENE
Okean 1 Rocket 3.5 23:05:04 51° ENE 23:05:04 51° ENE 23:08:54 10° NNE
Cosmos 2297 4.0 23:02:58 28° SW 23:06:01 67° WNW 23:11:45 10° NNE
Iridium 4 Rocket 4.4 23:00:43 10° NNE 23:06:11 40° E 23:06:46 39° E
H-2A R/B 2.8 23:05:41 37° SW 23:07:10 47° W 23:12:20 10° NNW
Cosmos 1300 Rocket 3.7 23:08:01 64° NE 23:08:01 64° NE 23:12:01 10° NNE
Cosmos 1025 Rocket 4.5 23:05:15 10° NNE 23:08:31 27° ENE 23:08:31 27° ENE
Cosmos 1727 Rocket 4.4 23:13:55 10° NNW 23:19:55 55° W 23:21:45 40° SW
Cosmos 1486 Rocket 4.3 23:15:33 10° N 23:20:47 53° ENE 23:21:11 52° E
Spot 4 4.4 23:21:25 46° WSW 23:21:51 48° W 23:26:33 10° NNW
Terra 2.8 23:21:17 34° WSW 23:21:53 35° W 23:26:15 10° NNW
ASTEX 1 3.6 23:20:22 10° N 23:25:16 65° W 23:25:46 61° WSW
Lacrosse 5 3.9 23:35:24 16° ENE 23:35:24 16° ENE 23:36:40 10° ENE
Okean 1 4.3 23:31:26 10° NNW 23:34:40 43° WNW 23:34:40 43° WNW
NOSS 3-1 (C) 4.4 23:32:26 10° NNW 23:39:49 59° NE 23:43:05 37° ESE
Cosmos 2369 Rocket 3.2 23:46:17 32° E 23:46:17 32° E 23:50:13 10° NE
BREEZE-M DEB (TANK) 4.2 23:43:42 10° NW 23:46:23 33° NNE 23:53:03 10° E
Meteor 2-14 Rocket 4.4 23:46:50 65° ESE 23:47:09 66° E 23:53:13 10° NNE
USA 234 4.0 23:41:36 10° NE 23:47:51 50° NNW 23:54:05 10° WSW
Meteor 2-15 4.4 23:44:42 10° N 23:50:50 68° E 23:51:18 66° ESE
Cosmos 1302 Rocket 4.0 23:55:00 79° NNE 23:55:00 79° NNE 23:59:58 10° NNE
